Location: St. Louis
(38.6270°N, 90.1994°W)
Time: 09:01:03
(UTC-06:00)

SR - Pass Details

Date: 30 November 2021
Orbit: 582 x 872 km, 66.7° (Epoch: 21 January)

Event Time Altitude Azimuth Distance (km) Brightness Sun altitude
Rises 10:31:25 0° 312° (NW) 2,846 ? 26.9°
Reaches altitude 10° 10:34:18 10° 291° (WNW) 1,971 ? 27.1°
Maximum altitude 10:37:05 17° 252° (WSW) 1,615 ? 27.3°
Drops below altitude 10° 10:39:58 10° 213° (SSW) 2,049 ? 27.5°
Sets 10:43:04 0° 193° (SSW) 3,015 ? 27.6°
